This is the latest recevied weather packets stored in our database for station/object W4ZHA. If no packets are shown the sender has not sent any weather packets the latest 10 day(s).
| Time | Temp. | Humidity | Pressure | Rain* | Wind** | Luminosity | Snow |
|---|---|---|---|---|---|---|---|
| 1787676578 | 27.22° C | 54% | 1020 hPa | 0 mm | - | 420 W/m² | - |
| 1787676276 | 26.67° C | 56% | 1019.6 hPa | 0 mm | - | 420 W/m² | - |
| 1787675971 | 26.11° C | 56% | 1019.6 hPa | 0 mm | - | 419 W/m² | - |
| 1787675667 | 25.56° C | 57% | 1019.6 hPa | 0 mm | - | 411 W/m² | - |
| 1787675365 | 26.11° C | 58% | 1019.6 hPa | 0 mm | - | 405 W/m² | - |
| 1787675060 | 26.67° C | 56% | 1019.6 hPa | 0 mm | - | 398 W/m² | - |
| 1787674754 | 26.11° C | 59% | 1019.6 hPa | 0 mm | - | 386 W/m² | - |
| 1787674450 | 26.11° C | 59% | 1020 hPa | 0 mm | - | 371 W/m² | - |
| 1787674145 | 26.11° C | 62% | 1019.6 hPa | 0 mm | - | 248 W/m² | - |
| 1787673840 | 25° C | 64% | 1020 hPa | 0 mm | - | 69 W/m² | - |
| 1787673535 | 25° C | 62% | 1020 hPa | 0 mm | - | 110 W/m² | - |
| 1787673235 | 25° C | 63% | 1020 hPa | 0 mm | - | 120 W/m² | - |
| 1787672935 | 25° C | 64% | 1020 hPa | 0 mm | - | 349 W/m² | - |
| 1787672631 | 24.44° C | 65% | 1020 hPa | 0 mm | - | 57 W/m² | - |
| 1787672329 | 23.89° C | 65% | 1020 hPa | 0 mm | - | 57 W/m² | - |
| 1787672025 | 25° C | 65% | 1020 hPa | 0 mm | - | 75 W/m² | - |
| 1787671720 | 24.44° C | 64% | 1020 hPa | 0 mm | - | 98 W/m² | - |
| 1787671419 | 23.89° C | 65% | 1020.3 hPa | 0 mm | - | 111 W/m² | - |
| 1787671114 | 23.89° C | 65% | 1020 hPa | 0 mm | - | 120 W/m² | - |
| 1787670811 | 24.44° C | 64% | 1020 hPa | 0 mm | - | 121 W/m² | - |
| 1787670510 | 23.89° C | 64% | 1020 hPa | 0 mm | - | 145 W/m² | - |
| 1787670205 | 24.44° C | 65% | 1020 hPa | 0 mm | - | 121 W/m² | - |
| 1787669904 | 23.89° C | 64% | 1020 hPa | 0 mm | - | 134 W/m² | - |
| 1787669599 | 23.89° C | 64% | 1020 hPa | 0 mm | - | 122 W/m² | - |
| 1787669295 | 23.89° C | 66% | 1020 hPa | 0 mm | - | 102 W/m² | - |
* Rain latest hour (hover to see other rain measurements)
** Current wind speed in m/s (hover to see current wind gust speed)